Theta_e
322 322 321 320 320 320 321 321 321 321 321 320 320 319 318 317 316 316 315 314 314 313 312 311 312 311 307 304 303 302 301 299 297 296 295 294 294 300 306 309 312 314 316 318 321 323 323 324 325 326 326 327 326 325 326 326 326 325 326 326 326 324 323 322 321 321 320 320 320 320 320 322 323 323 323 323 323 324 324 325 325 326 326 327 328
321 320 319 317 317 317 317 317 317 318 318 317 317 316 315 314 313 313 311 311 311 311 311 310 310 308 306 303 302 301 300 298 297 296 295 294 293 293 300 303 307 311 313 314 316 319 321 321 322 322 323 324 325 326 324 323 324 323 322 322 322 321 320 319 320 319 318 318 318 318 319 319 319 320 320 321 322 322 323 323 323 324 324 325 326
318 317 316 315 314 313 313 312 312 312 312 310 310 310 310 309 309 308 308 308 308 310 310 308 307 305 304 302 301 300 299 298 297 296 294 293 292 292 292 298 302 305 309 312 313 314 317 318 319 320 322 322 322 324 322 322 321 322 321 320 319 319 318 317 317 317 317 317 317 317 317 317 317 318 318 319 319 320 321 322 322 322 323 323 323
315 314 313 312 311 309 308 307 306 306 306 305 304 305 304 304 305 305 306 307 307 308 308 306 304 303 302 300 300 299 298 297 296 295 293 292 290 289 289 291 295 299 303 308 311 311 313 315 317 317 318 320 321 321 320 319 319 319 319 319 318 318 317 316 315 316 315 315 315 315 316 316 316 317 317 317 317 318 318 319 320 321 322 322 322
312 311 310 309 307 305 303 302 302 301 302 302 301 301 301 301 301 303 304 305 306 305 305 304 302 300 299 298 297 296 295 295 293 292 291 290 288 288 287 288 288 292 296 300 305 308 310 312 314 315 316 316 318 320 320 318 317 317 317 317 316 316 316 316 316 317 317 316 316 315 314 314 315 315 315 316 316 316 316 317 318 319 320 320 321
309 308 307 305 304 302 301 300 299 299 299 299 299 299 299 299 300 301 301 302 302 302 301 299 299 298 296 294 293 293 292 291 291 290 289 288 287 286 286 286 286 286 287 293 299 303 306 309 311 312 313 313 314 316 318 318 317 316 316 316 316 315 315 314 314 314 314 314 314 313 313 313 313 314 314 314 315 315 315 315 316 317 318 318 319
306 306 304 303 302 300 300 299 298 297 296 296 295 295 296 296 299 298 298 298 298 298 297 295 294 293 292 291 290 289 289 287 287 287 287 286 286 286 285 285 285 285 286 285 289 296 301 304 308 309 310 311 311 312 315 316 316 316 316 316 316 316 315 314 315 314 314 314 313 312 311 311 312 313 313 313 313 313 314 314 314 315 316 317 317
303 303 302 301 300 299 298 298 296 296 295 294 294 294 294 294 294 297 295 294 294 293 293 291 291 290 289 289 288 287 285 285 285 285 285 284 284 284 284 284 284 285 286 284 284 288 296 299 302 305 306 307 309 309 311 313 313 314 315 315 314 314 313 313 312 312 312 311 310 311 311 311 311 311 312 312 313 313 312 313 313 313 314 314 315
300 300 299 298 297 296 296 295 294 293 292 291 291 291 293 293 293 294 295 293 292 291 290 290 289 288 288 287 286 286 284 284 284 284 285 283 283 283 283 283 285 286 283 283 283 283 289 295 296 299 301 303 305 306 307 310 311 311 312 314 313 312 312 311 311 311 310 309 309 310 310 310 310 311 311 311 312 312 312 311 312 312 312 313 313
298 298 296 295 294 293 292 291 291 290 289 289 289 290 292 293 291 290 292 292 291 290 288 288 288 287 286 286 285 285 284 283 284 286 283 283 282 282 282 282 282 282 282 282 282 283 283 287 291 292 296 299 301 302 304 305 307 309 310 311 311 311 311 309 309 309 308 308 308 308 308 309 309 309 309 310 310 310 311 312 312 311 312 312 312
296 295 293 292 292 291 289 288 288 289 289 289 289 290 290 291 290 288 289 290 290 288 287 287 286 285 284 284 284 284 284 284 283 282 281 282 284 284 282 281 281 281 281 281 282 282 282 282 282 282 285 295 297 299 300 302 303 306 308 310 310 310 309 309 308 308 307 307 307 307 307 308 309 309 309 309 309 309 310 310 310 311 311 312 312
294 293 292 291 290 289 288 287 287 288 289 288 288 289 290 290 289 289 288 288 287 287 287 287 286 285 285 284 284 283 283 283 282 281 281 280 280 281 281 281 280 280 280 281 281 281 281 282 284 282 283 286 292 293 295 297 299 303 305 308 309 308 308 308 307 306 306 307 307 307 307 307 307 307 309 309 309 309 309 309 310 310 310 311 311
292 292 291 290 288 287 287 286 286 287 287 286 286 286 288 289 289 289 289 287 285 283 283 285 286 284 284 283 283 283 285 282 281 281 280 280 279 280 280 280 280 280 280 280 281 281 281 281 281 282 282 281 282 287 290 292 294 300 304 305 307 307 308 307 306 306 305 305 306 306 307 306 307 307 308 308 308 308 309 309 309 309 309 310 310
290 289 288 287 286 286 286 285 285 286 285 285 285 287 286 287 287 285 283 284 281 281 282 285 286 282 282 282 283 283 283 281 281 280 280 280 280 280 280 280 279 279 279 279 280 280 280 280 281 281 281 280 280 280 281 283 287 295 301 302 305 307 307 308 306 305 305 305 305 306 306 305 306 306 307 307 308 308 308 308 309 309 309 310 310
287 287 287 286 286 285 285 284 284 286 284 283 283 283 283 284 286 286 283 281 281 282 281 281 283 282 282 284 282 282 286 279 279 280 279 279 279 279 280 279 279 279 279 279 279 279 280 280 280 280 280 280 279 279 280 283 285 290 294 297 299 303 305 306 306 306 305 304 304 305 305 305 305 306 305 305 306 306 307 307 308 308 309 309 309
285 286 285 285 284 284 283 283 283 283 284 283 282 282 282 283 283 284 285 281 278 281 281 280 282 285 285 283 281 281 279 278 276 279 277 277 279 278 279 278 278 279 279 278 278 279 279 279 279 279 279 279 279 279 279 280 284 286 289 292 294 298 301 303 304 304 306 305 304 305 305 304 305 306 306 305 306 305 306 306 306 307 308 307 308
284 284 285 283 283 283 283 282 282 282 283 282 282 281 280 280 281 282 280 282 278 277 280 280 279 281 285 276 277 278 276 276 275 279 277 276 277 277 280 278 278 279 278 278 278 278 279 278 278 278 278 278 278 278 278 279 280 283 284 289 292 294 297 300 302 302 303 304 303 304 304 304 304 304 305 305 305 305 305 305 305 305 306 306 307
283 283 283 283 283 282 282 282 282 282 282 282 281 281 280 280 279 280 280 280 281 278 278 280 280 280 279 277 278 279 275 276 275 277 276 276 276 277 276 276 276 277 278 278 278 278 280 278 278 278 278 278 278 278 277 278 281 280 283 288 294 295 294 296 299 301 301 302 303 303 303 303 303 303 303 303 304 304 305 305 304 304 304 305 306
282 282 282 282 282 282 282 282 282 282 282 281 281 280 280 280 280 280 280 282 280 278 279 279 278 279 279 278 278 277 275 276 275 275 275 276 275 276 275 276 275 276 277 277 277 277 277 278 277 277 277 277 277 277 276 277 280 282 288 291 294 294 294 294 294 297 299 300 301 302 302 303 302 302 302 302 302 303 303 304 304 304 304 305 306
282 281 281 282 282 281 281 281 281 281 282 281 280 280 280 281 280 279 279 279 279 280 277 276 278 278 279 277 278 278 277 277 274 276 274 274 275 274 275 275 275 276 276 276 276 276 276 276 276 276 276 276 276 276 276 276 276 277 282 289 292 293 293 293 293 294 295 297 299 300 301 302 302 301 301 301 301 302 303 303 303 304 305 305 306
280 281 280 281 282 281 281 281 281 280 281 280 280 280 280 279 279 279 279 278 279 278 278 277 278 277 277 276 277 276 276 276 275 276 274 273 274 273 273 275 274 275 275 276 276 276 276 276 278 277 278 276 276 276 276 276 276 277 283 288 290 292 293 293 292 293 292 293 295 297 299 300 300 300 301 301 301 301 302 302 303 303 304 304 304
280 280 280 280 281 281 280 280 280 280 281 279 279 279 279 279 279 279 279 278 278 278 278 277 278 277 277 277 276 276 276 276 275 274 275 273 275 274 274 273 273 274 275 275 276 275 275 276 275 275 275 275 276 275 275 275 276 278 282 285 287 289 291 291 292 292 292 293 293 293 296 297 298 299 299 300 300 301 301 302 302 302 303 303 302
279 279 279 280 280 280 280 279 280 281 280 279 279 279 279 279 279 279 279 279 279 279 279 278 277 277 276 276 277 276 275 275 275 275 273 272 272 273 273 274 273 273 274 275 277 275 275 275 275 275 275 275 275 275 275 275 278 281 284 283 284 286 288 289 291 291 292 293 292 293 293 294 295 296 297 299 300 300 301 301 301 301 302 302 302
279 279 279 279 280 279 280 279 279 279 279 278 279 279 278 279 278 278 278 278 278 278 277 277 277 277 276 276 276 276 276 276 276 275 275 274 273 272 273 273 273 273 275 275 275 274 275 274 275 274 274 275 275 276 275 275 275 281 281 281 283 285 287 288 290 291 291 292 291 292 292 292 292 293 294 297 299 300 300 300 300 300 300 301 301
278 279 279 279 280 279 279 279 279 279 279 278 278 278 278 278 278 278 278 277 277 277 277 276 277 277 276 276 276 277 276 276 276 275 275 274 273 272 273 273 272 272 273 274 274 274 275 274 274 274 274 274 275 274 275 275 275 280 282 279 281 282 284 285 287 289 290 290 291 291 291 291 291 292 294 295 297 298 299 299 299 300 300 300 297
279 279 279 279 279 279 279 279 279 279 279 278 278 278 278 278 278 278 277 277 277 277 277 276 276 276 276 276 276 276 275 276 276 276 275 275 274 272 272 273 273 272 272 273 273 274 273 274 275 274 274 274 274 274 274 274 274 280 281 277 277 280 282 284 287 289 290 290 290 290 290 289 290 291 292 295 295 295 297 298 299 299 299 299 300
279 279 279 279 279 279 279 279 279 279 278 278 279 278 278 278 278 277 277 277 277 277 276 276 276 276 276 276 276 276 275 275 275 276 275 275 274 274 273 272 270 272 271 272 272 273 273 273 274 273 275 275 273 273 275 274 276 280 280 275 274 278 281 284 287 289 289 289 289 289 289 289 289 290 291 292 293 294 296 296 297 298 298 298 297
279 279 279 279 279 279 279 279 278 278 278 278 278 277 277 277 277 277 277 278 277 276 276 276 276 276 275 275 275 275 275 275 275 275 275 275 276 275 274 272 271 269 270 270 271 271 273 272 273 273 273 273 274 273 276 275 274 279 278 275 274 274 279 283 287 288 288 287 288 288 288 288 289 289 290 290 290 291 292 293 293 293 292 292 292
279 279 279 279 279 279 278 278 278 278 278 277 277 277 277 278 277 277 276 276 276 276 276 275 275 275 275 275 275 275 274 275 275 275 275 275 275 274 273 272 273 271 268 267 269 270 271 273 273 273 273 273 273 274 274 273 275 277 275 274 274 273 277 282 285 286 286 288 288 287 288 288 288 289 289 289 290 291 291 291 291 291 291 292 293
280 280 279 279 278 279 278 278 278 277 277 277 277 277 277 277 276 276 276 276 276 275 275 275 275 275 275 275 274 274 274 274 274 274 274 274 274 274 273 274 273 271 271 269 269 272 271 272 273 271 272 273 274 274 274 273 277 277 275 274 273 273 280 282 282 284 285 287 287 287 288 288 288 288 289 289 290 290 290 290 290 290 291 292 292
279 279 278 278 278 278 278 277 277 277 277 276 276 276 276 276 276 275 275 276 275 275 274 275 275 275 274 273 273 273 273 273 273 274 274 274 274 273 273 273 274 272 272 272 267 270 273 271 272 273 272 272 273 273 273 273 275 276 274 274 273 277 279 278 279 281 283 284 285 286 287 288 288 288 288 288 289 289 290 290 289 290 291 291 292
279 278 278 278 278 277 277 277 277 276 276 276 276 276 276 276 275 275 275 275 275 274 274 274 274 274 273 273 273 273 273 273 272 273 273 274 273 273 272 273 272 272 272 271 270 270 272 271 271 272 272 272 272 272 272 273 275 277 274 274 274 277 275 274 278 280 281 283 284 286 287 288 288 288 288 288 288 289 289 289 289 290 289 290 291
278 278 278 278 277 277 277 277 276 276 276 275 275 275 275 275 275 275 274 274 274 274 275 274 273 273 273 273 272 272 272 272 272 272 272 272 272 272 272 271 271 271 271 270 269 269 271 273 271 272 272 272 271 272 272 272 273 273 275 274 274 273 274 274 274 278 280 282 284 285 286 287 287 287 287 287 287 288 288 289 289 289 289 289 289
278 278 278 277 277 277 276 276 276 276 275 275 275 275 275 275 274 274 274 274 274 273 274 273 273 273 273 272 272 272 272 272 272 272 272 272 271 271 271 271 270 270 271 269 269 268 268 271 271 272 271 272 271 272 272 272 272 273 273 273 274 274 274 274 274 274 279 281 283 284 285 286 286 287 287 286 287 288 289 288 287 287 287 288 288
277 277 277 277 277 277 276 276 277 276 276 275 276 276 275 275 274 274 275 275 274 274 273 273 273 272 271 271 271 271 271 271 271 271 271 271 271 271 271 271 270 270 271 271 269 267 267 268 271 269 270 271 271 271 272 273 273 273 273 273 274 274 275 275 274 275 279 281 283 284 284 284 284 285 285 285 285 286 286 286 286 286 286 286 286
277 277 277 277 277 277 277 276 276 276 276 276 275 276 275 275 275 274 274 274 274 274 274 273 272 272 271 271 271 271 271 270 270 270 271 271 271 270 270 270 270 270 270 270 271 270 267 267 268 269 271 270 271 272 273 273 273 273 273 274 274 274 274 275 274 274 277 281 281 281 282 282 282 283 283 284 284 284 285 285 285 285 285 285 285
278 278 277 277 277 277 277 276 276 276 276 275 275 275 275 275 275 275 274 274 274 274 273 273 274 272 271 271 271 270 270 270 269 269 270 269 270 270 269 270 270 270 270 271 270 270 268 267 268 270 271 271 272 272 273 272 273 273 273 273 273 274 274 274 275 276 278 279 279 279 279 280 280 281 282 282 283 284 284 284 284 284 284 283 283
278 278 277 277 277 277 277 276 276 276 276 275 275 275 274 275 275 275 274 274 274 273 273 273 273 271 271 271 271 270 270 270 270 270 269 269 269 269 269 269 269 269 269 270 270 270 269 268 268 268 269 270 270 272 273 273 272 271 272 273 272 273 273 273 274 275 274 274 273 274 276 277 278 279 279 280 282 282 282 283 283 283 282 281 282
277 277 277 277 277 277 277 276 276 276 275 275 275 275 274 274 274 274 274 274 273 273 273 272 272 271 271 271 271 271 271 271 270 270 269 269 269 268 269 269 269 268 268 268 269 269 269 268 268 269 269 270 272 271 273 273 273 272 271 270 270 272 273 272 272 273 273 273 275 276 276 276 277 275 277 279 280 280 281 282 282 281 280 281 282
278 278 277 277 277 277 276 276 276 275 275 275 275 274 274 274 274 274 274 274 273 273 272 272 272 271 271 271 271 271 271 271 271 270 270 269 269 269 269 269 269 269 268 267 268 268 267 266 267 267 269 271 272 274 274 273 271 271 272 270 269 270 271 272 271 270 272 272 271 271 273 273 273 274 276 277 277 278 279 279 279 279 279 280 282
278 278 278 277 277 276 276 275 275 275 275 275 274 274 274 274 274 274 274 273 273 273 272 272 271 271 271 271 271 271 271 273 275 274 273 273 270 268 269 269 268 268 266 265 265 265 264 265 267 270 271 271 272 272 271 270 271 270 271 271 271 272 271 270 270 271 271 270 270 270 269 270 270 270 271 271 272 274 274 276 276 276 278 281 281
278 277 277 277 276 276 275 275 275 275 275 275 276 278 277 275 274 274 274 274 273 273 273 272 271 271 271 271 272 274 275 275 276 277 277 277 276 272 270 269 268 267 262 262 262 263 264 265 267 270 270 271 272 272 271 271 272 272 271 271 270 270 269 268 269 270 271 270 268 267 268 270 270 270 270 270 271 272 272 272 271 275 278 280 281
277 277 276 276 276 276 275 275 274 274 274 274 278 280 280 279 275 274 274 273 273 273 273 272 271 272 272 272 271 273 275 275 275 277 278 279 279 279 278 276 274 269 265 263 264 265 265 266 269 270 271 271 272 272 271 272 272 271 271 271 270 269 267 266 264 268 271 269 267 265 266 269 270 267 268 269 270 271 271 271 276 278 279 281 281
277 276 276 276 276 275 275 275 274 274 274 277 280 281 282 281 278 274 274 273 273 273 272 272 272 271 271 271 271 270 271 271 271 273 276 279 280 280 280 279 279 278 276 271 269 268 269 270 271 272 272 272 272 272 272 271 270 271 272 271 270 268 267 266 266 265 269 269 266 265 265 268 268 267 267 268 269 270 270 274 277 278 280 280 280
276 275 276 276 275 275 275 274 274 274 274 278 281 282 283 283 282 277 274 274 273 273 272 272 271 271 270 270 269 270 270 273 273 271 270 270 276 278 278 279 279 279 279 280 279 274 273 272 273 273 273 272 271 271 272 271 273 271 271 269 269 268 268 267 267 267 268 269 266 264 263 266 266 266 266 268 269 269 270 273 276 278 279 279 280
276 276 276 276 276 275 275 274 274 274 274 278 281 283 283 284 284 280 273 273 273 272 272 271 271 270 270 269 268 268 269 270 271 271 270 270 269 269 270 269 269 272 276 278 279 279 278 276 275 272 273 273 272 272 273 274 272 270 269 268 269 267 267 267 267 267 267 268 265 264 262 264 266 265 265 267 269 269 269 272 276 277 278 279 279
276 276 276 276 275 275 275 275 274 274 274 278 281 283 284 284 284 283 274 273 272 272 271 271 271 270 270 270 269 269 269 269 270 271 269 269 267 267 266 266 267 268 268 270 271 272 274 275 275 274 274 274 274 274 274 275 274 273 271 270 269 268 268 267 265 265 265 267 266 264 259 263 265 265 265 267 268 268 269 272 274 276 277 278 279
277 277 276 276 276 275 275 274 274 274 274 279 281 283 284 284 285 283 275 274 272 271 270 271 271 271 270 270 270 269 269 268 271 275 274 269 267 264 264 264 265 266 268 272 274 276 274 274 275 275 275 275 276 276 277 276 274 273 272 270 269 266 263 261 260 261 261 265 266 264 261 262 265 264 265 267 268 267 268 268 272 274 276 277 278
277 276 276 276 276 275 275 274 274 274 274 278 281 282 283 285 284 282 277 275 274 272 272 272 272 271 271 270 270 269 269 268 272 276 277 276 267 265 264 264 265 266 268 271 276 278 279 280 280 280 280 280 280 279 278 278 275 273 269 266 265 260 259 259 260 260 260 264 265 265 263 261 264 265 265 266 266 266 266 267 268 272 275 276 276
277 277 276 276 275 275 275 274 274 274 275 277 281 282 283 284 284 281 278 275 274 274 273 274 273 272 272 273 272 270 269 269 273 276 277 277 272 269 268 268 268 269 270 272 273 275 279 280 280 280 279 279 277 275 275 274 275 274 266 264 263 260 259 259 259 260 261 263 264 266 261 262 265 266 264 265 265 265 266 267 268 269 272 272 274
277 276 275 275 275 275 275 275 276 275 276 277 280 282 283 284 283 281 278 276 275 274 273 273 273 273 272 273 274 273 272 271 275 276 278 277 273 272 271 271 270 270 271 273 273 273 274 274 274 273 273 273 270 268 268 271 272 271 268 266 261 259 259 260 261 261 259 259 263 267 262 263 264 265 264 261 260 264 266 266 266 267 268 268 268
Wind_Speed
5 5 6 6 5 6 6 5 5 5 6 6 5 7 5 5 7 6 6 6 5 7 8 7 7 7 8 9 8 8 8 8 8 9 9 9 10 14 22 22 23 23 24 24 23 23 24 24 24 25 24 23 22 22 22 23 23 22 23 24 23 24 26 25 26 26 26 26 26 26 26 26 26 27 27 26 25 25 24 23 23 23 22 22 21
6 5 7 6 6 6 6 6 6 5 5 7 5 6 5 5 6 6 7 6 6 6 9 8 8 8 8 9 9 8 7 8 8 8 8 9 9 11 21 22 23 23 24 24 24 24 24 24 24 24 23 23 24 24 25 26 26 26 25 26 26 26 25 25 26 26 25 25 25 26 26 26 26 26 27 27 27 27 26 26 24 23 23 24 23
6 6 6 6 5 6 6 5 6 6 6 7 5 7 5 6 6 7 6 6 6 7 9 9 8 9 9 10 9 8 8 8 8 8 9 9 8 8 12 21 22 23 23 23 24 23 24 24 24 23 23 23 23 25 25 26 25 26 26 24 24 23 23 23 24 24 24 24 24 25 25 26 26 27 27 27 27 27 27 27 27 26 24 23 23
7 6 6 6 6 7 6 6 6 5 5 6 6 6 7 7 7 7 7 7 7 8 8 9 9 8 9 10 8 8 8 8 8 9 9 9 8 8 8 10 19 22 22 23 24 24 23 24 24 24 24 24 24 24 24 23 24 24 25 25 24 23 23 22 23 22 22 23 24 25 25 26 26 26 26 27 27 27 27 26 26 26 27 26 25
6 7 6 7 6 7 7 6 5 5 5 7 8 7 7 7 7 6 7 7 9 9 8 9 10 8 9 9 8 9 8 8 8 8 10 9 8 7 8 8 9 15 21 22 23 24 24 24 24 24 24 24 24 23 23 23 23 23 23 23 23 24 24 24 25 25 25 24 24 25 25 26 26 27 27 27 27 27 27 27 27 26 25 26 27
8 7 7 7 6 6 7 6 5 4 5 6 7 6 7 7 6 8 7 8 9 8 9 10 8 8 9 8 8 8 8 9 8 8 8 8 7 8 8 8 8 8 9 18 22 23 24 24 24 24 24 24 24 24 23 23 23 23 23 23 24 23 24 25 25 25 25 26 26 26 25 26 26 26 27 27 27 27 27 27 27 27 26 26 25
6 8 7 7 7 6 6 5 5 4 6 6 6 5 6 8 6 10 8 9 9 8 9 9 9 10 8 7 8 7 8 8 7 8 8 7 8 8 8 8 8 8 8 8 13 20 23 23 24 24 25 24 24 24 24 24 23 23 23 23 23 24 24 24 24 24 24 24 24 25 26 26 26 25 25 26 27 27 27 27 27 28 27 27 27
6 7 8 6 6 7 6 5 6 4 4 5 6 8 7 8 6 7 12 8 10 9 8 10 9 9 7 8 7 7 7 7 8 8 6 7 8 8 8 8 8 8 8 8 8 12 22 22 23 24 24 24 25 25 25 24 24 24 23 23 23 24 23 24 24 23 23 24 24 24 24 24 24 25 25 25 25 25 26 27 27 27 27 28 28
7 7 8 7 7 7 6 5 5 6 8 6 7 5 7 9 7 6 9 10 11 11 9 9 9 8 7 8 7 7 8 7 6 6 5 9 8 8 8 8 8 9 8 8 8 8 14 21 21 22 23 24 24 24 24 24 24 24 23 23 23 23 23 24 24 24 23 24 23 24 24 24 24 24 25 25 26 26 26 27 27 27 27 27 28
7 7 8 7 7 7 6 6 6 8 8 7 7 6 6 9 10 6 6 10 9 10 10 8 8 8 8 8 7 8 7 7 6 6 7 8 8 8 7 6 8 8 8 8 8 8 8 13 19 19 22 23 24 25 25 24 24 24 24 23 23 24 24 24 24 24 24 24 24 24 25 25 25 26 26 25 25 26 26 26 26 27 28 28 28
7 7 8 8 6 6 7 5 6 8 8 8 8 7 8 8 12 9 8 7 9 8 9 9 9 8 9 8 7 7 6 6 6 7 7 7 7 6 6 8 7 8 8 8 7 8 8 8 8 8 11 22 21 24 24 24 24 24 24 23 23 24 24 24 24 24 24 25 25 25 25 25 25 25 26 25 26 26 26 26 26 26 27 27 28
7 7 8 8 8 7 7 4 5 7 9 10 8 8 11 12 10 13 12 9 7 7 7 11 10 10 8 7 7 6 7 6 7 7 7 7 6 6 7 6 7 7 8 7 7 8 8 7 7 7 7 13 20 20 22 23 23 23 23 23 23 23 23 23 24 24 24 24 24 25 25 25 26 26 26 26 26 27 26 26 27 27 27 27 27
6 7 7 8 7 7 7 5 5 7 9 8 7 8 7 9 9 7 12 11 6 4 3 3 11 8 6 6 7 5 5 6 8 7 7 6 6 7 6 8 8 8 7 6 7 7 7 7 7 7 7 7 10 17 20 21 22 22 23 23 23 24 24 24 24 24 24 24 24 24 25 25 25 25 26 27 27 27 28 27 27 27 27 27 27
6 6 7 8 9 7 7 7 7 8 8 6 6 7 8 8 10 8 5 6 4 3 3 1 4 6 7 3 3 3 3 6 8 7 6 7 6 7 7 7 7 5 5 6 7 7 7 6 6 7 7 7 8 8 9 11 14 21 22 23 24 24 24 24 24 24 24 24 24 25 25 25 26 26 26 26 26 27 27 28 28 28 28 28 28
5 5 7 7 8 8 7 6 6 8 9 8 7 7 5 6 6 11 8 4 5 4 4 2 5 3 3 5 1 2 1 4 2 4 5 5 5 6 6 6 6 5 5 6 6 6 6 6 6 7 7 7 7 7 8 9 12 19 20 21 22 23 23 23 23 24 24 24 24 24 24 25 25 25 26 27 27 27 27 28 28 29 29 28 28
4 5 6 6 6 8 7 6 6 4 8 9 7 7 6 6 7 7 10 7 3 5 4 3 3 7 2 0 2 3 2 1 1 2 2 2 6 5 5 5 5 5 5 7 6 5 5 5 6 6 6 6 6 7 7 7 13 15 17 17 21 21 22 22 22 23 23 24 24 24 24 25 25 25 26 27 27 28 28 28 28 28 29 30 30
5 4 6 7 5 6 7 6 7 5 6 8 7 6 5 4 6 6 4 9 5 3 5 4 5 3 6 4 2 1 1 2 1 1 4 3 4 5 6 7 7 6 6 5 5 5 5 6 5 5 6 6 6 6 7 8 8 7 9 12 20 20 21 21 22 22 23 23 24 23 24 25 25 25 25 26 26 27 28 28 28 28 29 29 29
4 4 5 5 6 6 6 7 7 6 6 8 7 6 5 6 4 7 7 4 11 6 4 3 6 7 5 2 1 2 5 2 2 1 1 1 1 2 5 5 4 5 5 6 6 6 5 5 5 6 5 6 6 6 6 7 8 7 7 12 22 21 21 22 22 22 23 23 24 24 25 25 25 26 27 27 27 27 27 27 28 29 29 29 29
4 4 4 5 6 6 7 7 7 7 6 8 7 6 5 5 4 7 7 8 8 7 8 5 4 7 5 5 7 5 3 5 2 2 2 2 2 2 3 4 3 4 6 4 4 4 4 3 4 4 5 4 5 5 6 7 10 12 17 21 21 22 21 21 21 21 22 23 23 23 24 24 25 26 26 27 27 28 28 28 28 28 29 29 29
5 4 4 5 6 7 6 7 8 6 6 7 7 6 6 5 5 7 6 4 7 11 6 3 7 1 2 5 6 6 7 8 3 3 4 4 1 3 0 3 3 3 3 4 4 4 3 3 3 3 3 4 4 5 6 7 6 7 8 20 20 21 21 20 20 20 21 22 23 23 23 24 25 26 26 27 28 28 28 29 29 29 28 28 29
3 4 4 5 5 7 7 7 7 6 6 6 5 5 7 7 7 7 7 6 5 5 7 6 8 6 6 4 7 6 6 4 2 3 3 3 0 0 3 3 2 1 3 3 3 3 2 1 2 2 3 3 5 5 6 7 7 7 10 19 20 21 21 21 20 20 21 22 23 23 24 24 26 26 26 27 27 27 28 29 29 29 29 29 29
3 3 5 4 7 7 7 7 7 6 5 6 6 6 5 6 6 7 7 8 5 6 8 6 6 4 3 6 5 3 4 3 3 4 4 3 4 2 1 1 4 2 1 2 3 3 2 1 2 3 4 4 5 5 5 6 7 6 11 19 20 20 20 21 21 21 21 22 23 24 25 25 26 27 27 27 27 28 27 28 29 30 30 30 31
4 3 4 6 7 5 7 6 6 6 7 6 6 7 6 7 7 7 8 9 7 8 7 5 5 5 3 5 7 6 6 4 5 2 4 2 3 0 1 3 2 4 2 3 2 0 1 0 1 2 3 3 3 4 5 5 7 11 17 17 20 20 21 21 21 21 21 22 23 24 25 25 25 27 28 27 28 28 28 28 29 29 30 31 30
3 5 5 5 6 6 5 6 6 6 6 5 5 5 6 6 7 7 7 7 7 8 7 8 6 6 5 4 5 4 4 6 5 5 6 4 4 2 0 1 1 3 5 5 4 1 3 2 1 1 2 3 3 3 5 5 7 16 12 15 18 20 20 21 22 22 22 23 24 25 25 26 26 27 27 27 28 28 29 29 29 29 30 31 31
5 7 5 5 6 7 6 7 6 5 6 6 5 5 5 6 8 8 7 7 7 7 7 6 5 7 6 3 5 5 5 4 5 6 5 5 5 4 0 1 1 3 2 1 2 3 2 3 1 1 3 4 5 6 6 6 7 13 16 9 19 18 20 21 21 22 23 23 24 24 25 26 27 27 27 28 28 29 29 29 30 30 31 31 31
8 7 6 5 4 5 5 5 5 6 6 5 5 4 5 7 7 8 7 6 7 8 8 7 7 6 5 6 5 5 4 4 4 5 6 5 3 4 3 0 2 4 3 1 1 2 1 2 1 2 4 5 5 6 7 7 7 14 18 11 13 19 21 21 22 22 23 23 24 24 25 25 26 27 27 29 29 30 30 30 30 31 31 32 32
7 6 5 5 5 5 5 7 6 6 5 5 4 4 4 6 7 8 7 6 7 8 7 8 8 6 5 5 6 5 4 3 4 4 4 4 6 5 4 1 2 1 3 2 2 3 5 1 1 3 4 5 5 6 7 7 9 16 16 9 8 17 21 23 22 24 24 24 24 25 25 25 26 27 27 28 29 29 30 30 30 31 31 31 31
5 6 5 5 6 6 5 6 5 6 5 5 5 4 4 7 7 7 8 3 7 8 6 7 7 6 6 5 6 4 3 3 3 4 4 4 4 4 3 3 2 3 2 3 2 3 1 1 1 2 4 4 5 5 7 8 7 15 13 8 8 10 18 22 23 24 24 24 25 25 25 25 26 27 27 28 29 29 30 30 31 30 30 30 30
6 5 6 5 5 6 7 6 6 5 5 4 4 4 4 6 7 8 8 5 6 7 5 7 6 6 5 5 6 5 3 3 3 4 4 3 4 3 2 2 2 1 1 2 3 2 2 1 1 1 2 5 6 6 6 6 9 11 7 7 8 8 15 21 23 23 23 24 25 25 25 25 26 27 27 28 29 30 30 30 30 30 30 30 30
6 6 6 7 5 6 7 6 6 6 6 5 5 5 6 6 7 7 6 6 7 5 4 6 6 5 5 5 5 5 3 3 4 3 3 3 4 3 2 2 2 2 3 2 5 2 3 2 1 2 3 6 6 6 5 6 10 11 6 7 8 8 18 20 21 22 23 24 24 25 25 25 26 27 28 29 30 30 30 30 30 31 31 31 31
7 7 7 7 6 5 6 6 6 7 6 6 6 6 6 8 6 7 5 5 6 5 3 5 4 6 6 6 4 4 3 4 3 3 3 4 4 4 3 3 1 1 3 2 1 4 3 4 2 1 1 3 5 5 5 5 7 10 7 7 7 13 19 14 19 21 22 23 23 24 25 25 26 27 27 28 30 31 32 31 31 31 31 31 31
6 7 7 7 6 6 4 6 6 6 7 6 6 6 6 7 7 7 5 6 6 6 4 3 4 5 6 6 4 4 3 4 3 3 4 3 3 4 4 4 2 2 3 4 4 8 1 2 2 2 2 3 5 6 5 5 5 10 6 6 8 13 9 8 13 19 21 22 23 23 25 26 26 26 27 28 30 30 31 32 31 31 31 30 30
6 7 7 8 7 6 5 5 6 7 7 7 6 7 8 8 7 8 7 6 7 5 5 5 3 4 5 6 4 3 3 4 4 4 4 4 3 4 4 4 4 1 3 3 5 8 4 0 2 2 2 3 4 3 7 6 6 6 6 5 7 7 8 7 8 14 19 21 22 24 25 25 26 26 27 28 29 30 31 31 32 32 32 32 31
6 7 8 7 7 6 6 5 5 4 5 7 7 7 9 11 9 6 7 8 7 6 5 5 4 4 5 6 5 4 3 4 4 4 5 4 4 4 3 4 4 3 2 5 4 3 6 1 4 2 1 2 5 3 6 10 9 7 7 6 5 5 7 7 7 8 17 20 22 24 24 25 26 26 27 28 29 30 31 32 32 32 32 32 32
5 6 8 8 8 7 6 5 5 5 5 6 6 8 10 11 10 8 7 9 9 9 7 7 6 5 5 5 5 5 3 4 4 4 4 4 4 4 3 2 3 2 2 2 3 4 6 5 2 1 2 3 4 7 7 6 7 7 8 8 7 6 5 6 7 7 14 20 22 23 23 24 25 26 27 28 29 29 30 30 31 30 30 30 29
8 6 7 8 8 7 7 6 6 6 7 6 6 6 8 9 9 9 9 8 8 8 8 8 7 7 7 6 6 6 5 5 4 5 4 4 5 4 4 3 3 4 3 2 3 4 3 5 2 2 4 6 4 5 6 6 6 6 7 8 6 5 5 5 6 7 11 20 21 22 23 23 24 25 26 28 28 29 29 29 29 29 29 28 28
7 7 7 6 7 7 8 8 8 8 7 7 7 7 6 6 8 8 9 8 8 8 8 7 7 7 7 7 7 6 6 6 4 5 5 5 4 4 4 4 4 4 3 4 4 4 5 7 7 3 3 4 5 6 6 7 8 7 5 7 6 6 6 6 5 6 13 19 18 19 20 21 22 24 26 27 28 28 28 28 28 27 27 27 28
7 7 8 7 8 8 7 7 7 6 6 6 6 7 8 7 6 6 6 7 7 7 7 6 6 6 7 6 6 7 7 7 7 5 5 6 4 5 5 5 4 3 3 4 3 4 5 6 5 7 3 6 7 4 4 4 9 12 10 5 4 4 7 8 6 6 6 7 7 9 14 16 20 24 24 26 27 28 28 27 27 26 26 27 28
8 9 8 8 6 7 6 6 7 6 7 6 6 7 7 7 8 8 7 6 6 6 6 6 5 5 5 5 6 7 7 6 6 7 6 5 6 5 5 5 4 4 4 4 4 4 4 5 4 4 6 5 5 8 5 4 6 6 9 12 14 6 3 4 10 10 8 8 8 13 16 18 20 16 22 25 25 26 26 26 25 26 26 27 27
8 8 9 8 6 5 5 6 5 5 6 6 6 6 8 9 9 8 8 8 8 6 5 5 5 5 5 5 5 6 6 6 5 5 5 6 4 4 4 4 4 4 5 4 4 4 4 4 4 5 5 7 6 5 4 5 6 3 3 7 12 14 12 8 6 10 11 9 9 8 12 14 12 15 21 21 21 23 25 24 25 25 27 26 28
6 6 6 6 6 6 5 6 6 6 6 6 6 8 9 7 8 9 8 8 8 8 6 5 4 4 4 4 5 4 5 6 9 7 7 6 6 5 5 4 5 5 4 4 4 3 3 3 4 5 6 7 7 7 7 6 6 8 8 8 9 10 10 12 10 6 5 8 10 10 9 11 12 10 10 11 12 18 17 22 20 24 26 27 28
6 6 7 7 7 7 7 6 6 6 5 4 6 11 9 10 9 7 6 6 7 7 7 6 5 5 5 5 5 8 9 9 10 11 11 12 11 8 7 6 5 5 5 5 5 4 3 4 4 4 7 7 7 7 7 7 6 8 9 9 10 11 10 11 10 1 4 7 11 14 11 8 9 10 9 12 12 12 10 11 13 19 25 28 28
8 8 8 9 8 7 8 7 8 6 5 5 11 13 13 13 9 8 7 6 6 7 6 6 7 6 5 5 4 6 7 9 9 12 12 13 14 14 14 12 10 9 6 6 5 4 4 4 5 5 7 8 8 6 7 8 6 8 8 8 10 11 10 10 13 10 3 9 10 13 13 9 8 11 11 11 12 11 10 11 23 27 27 28 28
8 6 8 8 8 7 7 7 7 7 6 8 14 14 14 14 12 8 5 5 5 7 7 6 5 5 5 5 4 4 5 6 4 5 8 13 15 15 15 15 15 15 13 10 7 5 5 5 6 7 6 7 9 8 7 5 8 9 7 8 9 10 10 10 9 11 8 10 12 13 15 8 8 9 11 11 11 10 12 20 26 26 27 28 28
7 9 10 9 9 8 8 9 8 8 7 11 14 14 15 15 15 10 5 5 6 6 7 7 6 5 5 5 5 5 5 9 7 5 5 5 9 13 15 16 16 16 16 17 15 10 7 8 8 7 7 4 6 6 4 8 10 9 6 6 8 9 9 10 10 11 12 9 10 11 13 11 9 9 12 12 11 11 13 17 25 27 28 27 26
9 9 8 9 8 9 9 10 9 8 8 10 15 15 15 16 15 12 5 6 5 5 7 7 6 6 6 6 6 6 5 5 5 7 6 7 7 6 6 5 5 7 12 16 17 18 14 8 6 7 5 4 7 4 6 9 7 5 5 6 7 9 9 10 11 11 10 6 7 10 13 9 6 9 12 12 10 12 10 17 26 27 26 25 25
11 12 11 11 10 10 9 9 8 8 7 13 15 16 16 16 16 11 6 6 5 5 7 6 6 6 5 6 6 7 5 5 6 7 7 8 5 6 6 7 6 7 7 7 7 5 6 6 7 6 6 6 6 7 10 6 5 5 4 7 9 10 9 8 8 7 7 5 7 6 8 11 8 10 11 11 12 12 10 16 23 24 23 24 27
6 5 6 7 10 10 10 9 8 9 7 15 15 15 16 16 16 8 6 8 7 7 7 7 7 6 6 7 7 7 6 6 9 15 12 7 6 7 9 7 7 6 7 8 11 11 9 8 8 8 7 6 9 8 7 6 6 5 5 4 3 5 7 9 10 4 3 4 4 6 7 10 7 10 13 11 11 13 13 11 16 21 22 25 27
9 10 10 11 9 9 10 10 10 9 8 12 16 16 16 17 13 7 7 7 7 8 8 8 7 6 7 7 7 6 6 7 10 14 16 14 7 9 8 8 8 7 8 6 13 17 19 19 18 18 17 17 18 15 13 15 11 9 5 5 7 2 5 9 12 6 5 3 5 5 6 11 8 9 13 11 11 14 13 10 9 14 23 27 25
11 12 9 7 7 8 10 11 12 10 9 12 18 18 18 18 14 9 7 7 8 8 8 7 6 7 8 13 10 8 8 8 12 15 16 14 9 10 9 9 9 10 10 8 7 9 17 19 19 18 17 14 7 6 8 9 13 10 2 8 4 1 6 4 9 9 9 6 7 3 3 7 10 9 13 11 12 7 9 9 9 13 21 19 24
8 6 7 8 8 7 9 10 8 11 10 11 18 19 20 19 15 9 7 7 9 9 8 8 7 7 7 10 17 14 11 10 16 16 18 15 10 10 10 9 10 12 10 7 8 8 7 7 6 3 1 2 2 1 4 8 10 8 3 5 1 3 7 7 7 8 10 3 3 2 6 8 10 9 9 12 12 10 5 6 10 11 10 11 12
Wind_Direction
105 95 92 78 73 70 74 77 79 80 85 74 81 92 84 96 93 93 85 86 82 87 85 71 76 75 81 80 71 69 68 64 64 61 56 56 47 33 39 41 44 45 46 47 47 48 46 44 42 40 39 39 39 40 41 43 40 40 40 40 40 38 34 30 29 27 24 20 19 16 16 15 14 12 9 8 6 4 3 3 2 0 360 356 352
105 97 98 92 90 86 78 74 74 69 83 83 72 90 98 88 84 87 89 84 80 81 87 77 73 74 71 77 68 63 63 63 59 58 59 56 46 37 34 40 40 42 44 45 46 45 45 45 44 43 41 40 38 39 38 35 33 33 32 30 30 29 26 25 25 23 22 20 19 16 14 12 11 10 9 8 6 5 3 1 359 358 356 358 357
105 106 99 100 93 90 82 81 77 67 78 89 79 86 86 82 88 87 85 84 74 70 82 81 75 71 72 71 69 65 62 61 60 57 57 53 46 40 32 35 38 38 40 43 44 44 43 42 43 41 40 40 41 39 39 37 33 32 34 31 31 30 30 28 26 23 21 19 17 16 14 11 9 7 6 5 3 1 1 0 359 357 354 353 353
104 101 105 103 97 91 85 80 78 74 79 91 93 90 85 81 74 80 82 82 81 76 76 86 80 74 75 72 69 69 63 61 61 59 59 54 44 39 38 32 33 37 37 38 41 42 42 41 40 40 39 38 41 38 39 38 36 34 33 32 30 27 26 24 21 18 18 19 16 14 11 9 7 6 4 2 1 359 356 355 356 356 356 355 353
100 101 101 96 95 96 88 80 78 85 90 93 94 94 88 86 75 75 82 85 83 82 81 77 80 74 73 74 73 67 63 63 60 55 56 52 45 41 41 36 33 32 33 35 37 39 41 40 39 39 39 38 38 38 37 36 35 34 34 32 30 27 23 19 19 22 21 20 16 12 8 6 4 3 2 0 359 357 355 353 351 351 351 353 353
113 106 100 96 90 89 98 88 79 76 87 84 86 82 90 86 88 82 68 80 81 83 87 82 74 73 69 69 68 68 67 67 59 55 55 52 45 45 41 40 38 35 29 30 32 36 38 39 39 39 40 39 37 37 37 35 34 30 29 29 27 25 23 20 18 15 12 12 10 9 6 4 2 1 359 358 357 356 355 353 350 348 347 346 346
102 111 101 101 99 95 84 87 84 79 82 76 87 66 75 71 88 91 80 77 78 72 82 81 81 73 69 71 71 69 65 66 59 53 50 50 50 46 43 42 39 40 34 34 26 30 37 39 40 39 38 38 38 36 35 35 33 31 29 28 26 23 22 20 19 17 15 12 9 7 5 3 1 360 358 356 354 353 353 352 350 347 345 345 342
97 104 100 97 103 96 88 88 88 87 69 75 79 88 89 84 55 95 100 87 91 81 81 86 81 78 69 69 69 65 66 60 56 54 47 53 50 47 42 41 40 39 38 36 35 26 35 38 39 39 38 37 37 35 32 31 30 30 28 27 25 24 21 20 18 16 13 11 9 7 5 2 359 358 356 354 353 352 350 349 348 346 345 342 341
94 96 104 103 97 94 88 87 97 90 86 80 81 85 102 93 70 51 99 109 99 97 84 86 84 79 74 71 59 64 60 55 52 54 51 55 50 46 45 40 39 38 37 37 35 32 30 37 37 37 36 37 37 36 33 29 28 26 25 24 23 22 20 19 17 15 13 11 9 7 5 2 360 358 356 354 352 350 349 348 346 345 343 341 339
88 94 97 93 95 96 92 88 94 92 92 88 87 88 85 101 92 58 76 104 102 103 99 90 88 83 72 66 60 61 57 54 54 51 54 54 50 47 41 42 41 38 37 38 38 35 34 31 34 33 31 35 36 34 31 28 25 24 23 21 22 20 19 18 16 14 12 10 8 6 4 2 360 357 356 354 352 349 348 346 344 342 340 338 337
91 95 103 104 93 96 95 87 100 102 98 94 93 93 90 88 102 91 67 67 98 99 107 102 90 82 74 61 63 58 55 55 55 55 52 50 51 48 48 39 42 37 38 39 36 39 37 35 32 32 25 32 33 32 30 27 23 24 22 19 19 18 18 17 14 13 11 9 7 4 2 0 358 357 354 352 350 348 346 344 342 340 338 336 334
94 100 106 107 103 102 99 94 95 103 103 103 104 107 114 105 98 106 100 81 64 83 101 103 86 78 76 65 57 64 57 56 57 53 51 46 44 45 48 40 43 38 38 34 40 38 38 36 37 32 33 30 33 31 29 26 22 22 22 18 17 16 14 14 13 11 9 7 5 3 1 359 357 355 353 350 348 347 344 341 340 338 336 334 332
102 113 111 107 104 105 102 88 92 97 100 104 115 107 101 109 107 91 111 109 70 31 36 83 107 76 66 71 63 45 64 62 56 49 46 43 41 50 39 44 36 36 27 35 40 38 37 35 35 35 32 31 26 26 26 23 19 18 19 16 14 13 10 10 10 8 7 5 3 1 359 357 354 353 351 349 348 346 344 342 339 336 333 331 330
110 112 109 115 115 107 105 113 112 100 99 105 101 104 112 113 120 88 22 99 88 3 340 56 54 133 129 97 54 35 80 62 58 40 40 37 41 49 41 47 40 31 25 41 40 38 36 34 36 37 34 33 29 25 20 17 13 15 17 16 12 10 8 7 7 5 4 3 1 359 357 355 353 350 348 347 346 344 342 340 338 335 333 331 328
105 109 113 108 112 115 113 116 110 120 112 102 105 100 105 116 123 123 107 61 97 36 20 16 136 127 122 100 121 71 358 11 7 39 24 40 42 53 48 47 41 33 32 45 40 33 35 32 39 37 34 33 30 25 22 17 14 14 14 13 11 8 4 4 4 2 2 1 359 357 355 354 351 349 346 345 343 341 339 338 336 334 332 329 327
96 104 103 106 116 115 118 110 103 101 118 118 111 107 108 108 107 110 124 105 60 43 19 15 120 141 105 76 181 120 97 35 1 317 9 18 44 51 47 47 39 34 39 45 35 35 33 36 40 37 34 34 33 25 21 17 12 10 3 360 10 6 3 2 1 360 359 358 356 354 352 350 349 347 345 343 341 339 337 334 333 331 329 328 326
91 96 109 111 106 111 112 107 104 100 109 108 105 112 106 109 118 115 113 134 117 119 28 23 51 0 138 112 60 62 172 180 118 99 7 8 9 37 45 37 29 30 35 32 38 38 30 35 35 35 35 33 30 25 20 12 12 355 351 350 5 6 3 1 359 357 356 355 353 352 349 348 346 344 343 341 339 337 335 333 331 329 327 326 325
85 94 99 109 108 107 108 110 106 103 100 102 109 103 99 98 111 125 107 101 129 120 101 36 66 53 55 102 137 170 169 212 94 137 318 163 311 40 63 42 28 33 33 32 27 24 26 32 30 33 32 31 23 22 20 12 9 359 356 355 4 3 1 0 358 356 354 353 351 350 348 346 344 342 340 338 337 334 332 330 328 326 326 325 324
86 90 97 104 107 103 105 105 104 99 97 103 102 110 114 110 121 104 116 131 122 113 128 153 98 46 40 70 71 57 113 133 167 101 81 323 16 3 359 30 22 41 38 29 21 28 17 29 31 37 35 26 21 18 18 14 10 8 2 2 2 0 358 358 356 353 352 350 348 347 344 343 342 340 338 336 334 332 330 328 326 326 327 325 323
102 93 105 112 112 106 108 100 95 89 96 101 117 126 109 89 94 103 98 106 125 127 145 185 128 86 29 64 60 60 54 67 89 152 153 151 292 334 309 15 31 29 32 26 20 24 16 8 29 35 39 26 23 21 21 11 9 359 353 359 358 356 356 355 353 351 349 347 346 344 342 341 339 338 336 334 332 330 328 327 326 326 324 323 322
81 116 114 115 112 110 99 99 103 106 110 113 113 116 118 124 116 104 105 88 91 124 114 120 112 143 110 55 64 63 59 66 82 68 130 116 268 311 305 336 43 10 358 355 355 31 17 6 48 40 40 32 24 24 17 14 5 355 356 357 355 354 352 351 350 349 347 345 344 342 340 339 338 336 335 332 331 329 327 326 326 325 324 323 320
102 120 114 107 102 99 104 113 117 122 121 122 117 109 107 105 112 114 112 99 80 96 112 120 109 116 113 146 115 87 66 43 36 84 53 84 139 176 216 346 357 284 221 6 334 351 355 30 45 42 38 33 23 15 18 14 2 350 356 356 353 351 350 348 347 347 344 343 342 340 339 338 337 335 333 331 329 328 326 326 325 325 323 322 320
139 112 103 105 98 104 117 118 120 125 122 120 120 122 125 117 114 104 103 113 114 108 98 96 110 108 110 139 154 163 172 157 179 164 138 131 79 225 251 196 208 313 289 343 325 320 133 33 99 62 58 38 30 13 19 13 0 355 359 355 352 349 348 346 345 344 343 341 340 338 337 336 335 333 331 329 328 327 326 326 325 324 322 320 320
141 122 108 105 115 115 117 117 120 121 111 112 117 124 127 119 111 107 105 104 110 107 114 119 118 106 95 107 119 126 99 122 156 147 130 156 126 150 195 300 339 223 291 327 293 213 139 169 215 106 46 51 23 22 13 17 359 354 359 356 349 348 346 344 344 343 341 340 338 337 335 334 332 330 329 328 326 326 325 325 324 322 320 320 321
162 136 141 139 134 130 131 131 122 114 119 116 121 126 123 112 109 106 109 111 115 116 113 112 114 115 117 86 98 91 97 103 114 116 82 107 113 94 267 128 201 303 301 39 301 310 171 148 174 54 57 30 23 15 12 11 1 350 355 354 349 345 344 341 340 340 339 338 336 333 332 330 329 329 328 326 326 325 324 322 321 321 321 320 320
158 158 154 146 135 130 128 116 115 116 116 115 117 118 115 113 113 110 107 109 107 107 110 108 97 98 106 102 83 92 92 87 109 109 128 112 100 128 142 358 170 261 302 321 300 346 330 77 1 50 40 33 19 10 11 2 355 349 353 351 344 343 341 339 337 337 338 336 333 331 329 328 328 327 326 325 325 324 321 321 322 321 321 320 320
157 144 145 141 133 126 128 122 120 116 111 111 108 108 110 107 104 105 102 108 109 112 110 115 113 112 101 110 112 88 96 97 108 119 131 135 139 159 132 57 351 226 281 306 323 230 235 298 78 26 34 26 18 10 1 2 346 346 349 346 337 337 337 334 334 337 336 334 331 330 329 328 327 327 327 326 324 321 321 321 321 320 319 318 317
137 142 149 140 140 133 121 117 114 114 112 118 126 126 130 116 109 109 104 100 110 105 111 109 113 118 117 119 105 106 100 101 96 112 114 117 122 125 112 109 126 318 304 310 309 284 201 230 341 96 41 27 12 11 356 351 342 342 346 339 335 330 330 330 333 334 332 331 330 331 330 329 329 329 328 325 323 322 321 320 319 317 316 315 314
148 151 143 136 138 134 126 123 123 121 124 128 134 134 132 117 118 115 109 104 102 109 116 115 120 121 115 117 116 116 107 98 90 91 92 86 100 110 117 153 158 143 278 312 271 217 303 150 321 277 81 15 7 358 353 341 332 337 334 331 325 322 320 327 330 329 328 327 329 331 331 331 331 330 328 326 324 321 319 318 317 317 316 315 314
155 150 139 138 135 131 130 131 131 133 137 140 143 141 127 110 110 101 111 112 105 97 105 119 123 117 113 103 108 109 106 99 101 95 90 103 101 95 102 84 117 159 190 200 275 221 250 309 162 289 345 12 352 342 340 322 320 331 321 319 319 310 317 326 324 323 322 324 328 330 331 332 332 330 328 326 323 320 320 319 319 318 316 316 315
155 149 142 140 135 132 135 137 142 145 145 150 150 139 130 116 109 110 108 109 108 108 111 116 125 120 120 114 113 114 114 107 100 90 92 99 100 105 90 86 75 137 165 161 238 289 141 243 301 81 25 340 338 316 310 301 308 320 315 307 305 307 316 314 314 315 318 321 326 330 332 332 330 329 327 325 323 323 322 322 321 319 317 316 315
158 148 143 139 137 139 145 148 151 153 154 155 149 135 123 117 122 118 120 115 114 121 124 110 127 129 126 127 133 130 128 117 112 110 104 98 117 109 111 114 104 121 130 175 216 255 245 211 274 317 353 326 312 303 304 299 298 310 297 299 297 307 305 300 302 307 312 318 326 330 331 331 328 327 326 324 323 322 319 319 318 316 315 314 314
155 150 145 140 139 144 151 164 170 168 161 155 153 140 127 127 120 126 128 126 126 130 126 123 136 134 133 132 137 138 144 137 135 124 117 124 115 118 133 132 129 130 144 189 218 275 293 244 124 261 310 313 310 298 307 309 309 306 302 291 291 292 296 292 296 300 307 315 325 329 331 330 327 326 326 326 324 321 320 318 318 317 315 314 313
157 152 144 140 141 149 160 172 182 176 171 160 152 141 138 127 123 136 139 137 137 143 145 152 155 147 141 138 147 155 169 146 142 142 148 145 147 143 161 141 156 166 213 168 246 259 276 269 299 298 259 299 298 305 319 320 319 314 310 307 292 282 288 292 294 295 304 317 324 331 331 328 326 327 327 327 324 321 319 319 318 317 316 316 316
154 155 148 145 148 152 161 175 181 181 180 166 160 147 143 141 143 149 154 151 151 156 162 168 163 150 143 150 165 165 162 144 155 156 152 165 165 165 170 156 161 207 204 193 162 248 277 289 203 263 287 310 304 314 315 300 296 303 308 313 310 297 279 283 287 289 306 319 328 332 330 326 327 330 330 327 322 321 321 321 320 319 318 317 317
159 151 144 146 150 159 166 180 187 184 182 172 158 158 146 145 143 142 139 139 139 165 167 167 162 162 161 159 178 170 164 157 166 162 172 168 177 175 170 193 183 204 205 200 220 212 266 295 268 5 307 319 304 300 293 293 297 310 311 302 293 288 285 284 287 292 309 323 331 332 327 326 329 330 328 323 320 321 320 320 320 320 318 318 320
162 149 143 145 156 166 178 187 188 189 183 165 155 148 148 144 143 151 151 148 152 157 173 167 166 166 171 178 177 172 168 166 180 177 178 181 185 176 186 197 196 207 205 208 221 243 251 269 289 284 286 294 292 295 299 318 318 314 300 294 307 308 305 296 285 300 317 326 330 328 324 325 328 329 325 320 320 321 320 321 321 321 321 321 320
160 159 154 162 172 176 183 188 189 182 170 171 171 161 140 139 139 139 154 150 145 164 169 171 169 178 177 182 179 176 176 182 191 185 183 187 182 190 198 207 202 202 209 225 227 228 247 260 270 299 316 320 316 308 309 324 330 322 319 299 281 288 308 313 314 318 318 325 330 324 325 325 327 328 323 318 319 320 320 320 321 322 322 320 319
167 165 164 165 174 178 184 179 187 181 177 177 170 162 150 132 119 137 145 157 170 170 174 174 177 180 182 183 184 186 190 193 186 189 184 189 188 203 203 201 206 196 217 224 226 238 244 266 273 266 293 296 303 312 326 337 307 297 316 328 322 313 261 317 326 325 321 320 324 324 319 319 323 325 318 316 317 318 320 321 322 322 321 319 317
175 171 168 171 170 171 180 181 183 174 180 176 173 161 132 131 130 142 152 168 166 173 170 178 180 186 188 193 193 197 198 197 190 190 180 190 185 205 209 193 206 201 217 224 231 233 245 262 273 291 292 304 303 289 305 320 308 293 331 324 311 318 325 332 337 325 320 323 328 329 322 320 324 321 316 312 314 318 321 322 322 321 319 317 316
173 166 156 157 158 167 175 183 179 182 187 187 178 164 153 142 136 144 167 175 170 163 164 182 190 190 198 199 203 201 204 204 204 195 193 185 176 203 216 192 206 204 217 222 221 231 257 267 277 280 295 303 304 312 319 322 321 321 323 313 298 309 317 316 320 315 305 324 323 320 320 322 321 321 313 311 316 322 320 322 321 318 317 320 320
161 160 156 158 170 177 178 184 184 189 194 187 184 172 163 155 155 158 175 193 184 160 167 188 200 204 206 204 209 208 210 212 217 218 215 214 208 194 197 191 198 200 208 209 224 229 236 253 261 280 292 289 300 308 306 302 312 317 308 313 313 316 316 306 298 204 333 347 330 322 319 320 315 313 318 311 313 320 317 321 313 316 319 320 320
169 167 167 171 176 179 184 185 188 193 192 184 185 179 173 174 171 175 190 192 176 167 190 195 206 205 209 210 210 220 220 221 222 224 224 224 226 221 214 205 195 188 192 204 219 205 210 244 257 256 261 281 296 303 295 305 311 309 309 312 316 317 319 326 320 323 93 3 330 318 311 322 324 320 314 306 310 314 317 309 316 319 319 321 324
176 166 172 181 180 183 184 189 194 194 194 193 191 187 184 185 182 185 190 191 187 188 187 204 211 202 209 214 220 210 224 222 211 227 232 231 231 233 236 235 231 219 204 190 201 213 218 238 249 247 267 277 293 298 299 312 307 305 299 309 312 310 308 306 301 300 324 358 328 314 304 318 323 312 306 306 308 309 310 314 318 319 321 323 323
159 172 186 180 187 184 187 191 198 198 198 195 194 191 192 194 191 182 192 193 192 206 182 211 211 207 202 217 229 223 219 222 219 212 217 241 244 237 237 239 238 237 237 233 225 215 210 231 242 251 254 275 283 280 292 300 301 295 307 307 308 299 294 291 292 302 310 337 314 302 298 310 322 314 305 304 308 309 312 315 316 320 321 321 323
176 182 184 188 185 189 192 196 200 198 196 196 196 195 198 200 197 187 187 195 192 181 200 210 209 206 205 211 222 232 213 210 215 209 211 218 224 237 246 254 254 259 247 241 242 242 240 240 249 257 256 250 265 278 291 292 290 294 304 302 307 294 288 284 295 293 298 323 299 306 298 304 318 314 303 304 311 307 307 310 317 319 319 321 325
182 187 187 188 194 193 196 198 199 198 199 197 198 198 202 203 204 193 171 174 199 213 209 212 210 203 207 212 222 228 218 213 217 209 205 212 210 223 232 239 239 235 239 243 243 236 239 243 249 257 259 232 238 265 280 269 272 294 306 302 301 294 295 296 282 267 282 276 283 297 282 304 316 307 298 306 312 305 305 312 313 316 318 322 325
186 183 200 197 197 196 196 194 196 204 202 197 200 201 204 206 205 197 170 195 209 212 217 213 209 203 202 212 219 226 220 220 224 226 220 202 210 217 231 241 243 244 241 234 236 237 231 228 229 238 238 223 233 247 256 267 304 316 305 306 299 303 318 304 292 294 259 256 259 280 282 292 305 302 301 306 308 304 309 307 310 314 319 324 324
188 195 199 201 198 193 194 195 199 208 201 198 200 204 206 207 204 204 190 201 211 214 222 212 208 204 202 207 216 220 223 225 223 229 230 220 205 218 225 233 235 239 245 238 247 246 244 243 241 241 250 257 266 280 288 293 298 309 326 308 283 343 323 306 299 304 283 318 279 255 273 289 307 311 303 307 309 303 304 304 305 312 321 321 321
198 203 200 199 200 198 196 200 203 203 204 200 202 205 207 206 205 206 199 200 217 219 225 218 206 209 210 215 215 218 223 228 227 229 229 227 217 212 217 227 234 239 243 232 230 239 245 246 246 250 262 272 290 319 314 300 294 302 317 280 286 1 277 260 283 301 306 300 280 253 271 276 305 312 307 305 298 273 292 296 306 320 319 318 319
204 185 189 199 203 204 206 208 198 204 213 205 205 207 206 206 205 204 196 204 221 227 221 228 215 210 216 220 228 228 226 228 230 229 229 226 227 220 218 223 234 239 236 218 225 220 225 234 247 239 250 142 76 40 283 291 301 310 284 266 245 230 265 268 277 305 309 295 223 21 318 306 316 313 327 324 311 299 250 302 317 311 312 312 315